Weather History for Emporia, KS

Change the Weather History Date:

Wednesday, July 3, 2013

  Actual Average Record
Temperature  
Mean Temperature 72 °F 78 °F  
Max Temperature 86 °F 88 °F 100 °F (2012)
Min Temperature 57 °F 67 °F 49 °F (2014)
Degree Days  
Heating Degree Days 0 0  
Month to date heating degree days 0 0  
Since 1 June heating degree days 12 8  
Since 1 July heating degree days 0 0  
Cooling Degree Days 7 13  
Month to date cooling degree days 15 37  
Year to date cooling degree days 430 419  
Since 1 June cooling degree days 314 300  
Growing Degree Days 20 (Base 50)    
Moisture  
Dew Point 51 °F    
Average Humidity 53    
Maximum Humidity 80    
Minimum Humidity 25    
Precipitation  
Precipitation T in 0.15 in 1.57 in (2005)
Month to date precipitation T 0.48  
Year to date precipitation 13.98 19.00  
Sea Level Pressure  
Sea Level Pressure 30.03 in    
Wind  
Wind Speed 5 mph (South)    
Max Wind Speed 18 mph    
Max Gust Speed 32 mph    
Visibility 10 miles    
Events Rain , Thunderstorm    
T = Trace of Precipitation, MM = Missing Value Source: NWS Daily Summary

Daily Weather History Graph

Daily Weather History Graph

Search for Another Location

Airport:

Trip Planner

Search our weather history database for the weather conditions in past years. The results will help you decide how hot, cold, wet, or windy it might be!

Date:

Astronomy

Jul. 03, 2013 Rise Set
Actual Time 6:06 AM CDT 8:51 PM CDT
Civil Twilight 5:34 AM CDT 9:23 PM CDT
Nautical Twilight 4:55 AM CDT 10:02 PM CDT
Astronomical Twilight 4:10 AM CDT 10:47 PM CDT
Moon 2:43 AM CDT (7/3) 5:04 PM CDT (7/3)
Length of Visible Light 15h 48m
Length of Day
14h 45m
Waning Crescent, 18% of the Moon is Illuminated
Jul 3
Waning Crescent
Jul 8
New
Jul 15
First Quarter
Jul 22
Full
Jul 29
Last Quarter

Hourly Weather History & Observations

Time (CDT) Temp. Dew Point Humidity Pressure Visibility Wind Dir Wind Speed Gust Speed Precip Events Conditions
12:53 AM 61.0 °F 51.1 °F 70% 30.08 in 10.0 mi South 6.9 mph - N/A   Clear
1:53 AM 60.1 °F 51.1 °F 72% 30.07 in 10.0 mi SSW 6.9 mph - N/A   Clear
2:53 AM 60.1 °F 48.9 °F 67% 30.06 in 10.0 mi SSW 4.6 mph - N/A   Clear
3:53 AM 59.0 °F 50.0 °F 72% 30.06 in 10.0 mi Calm Calm - N/A   Clear
4:53 AM 57.9 °F 52.0 °F 81% 30.06 in 10.0 mi Calm Calm - N/A   Clear
5:53 AM 57.9 °F 52.0 °F 81% 30.06 in 8.0 mi Calm Calm - N/A   Clear
6:53 AM 61.0 °F 54.0 °F 78% 30.07 in 10.0 mi Calm Calm - N/A   Clear
7:53 AM 66.0 °F 54.0 °F 65% 30.08 in 10.0 mi Calm Calm - N/A   Clear
8:53 AM 72.0 °F 54.0 °F 53% 30.10 in 10.0 mi Calm Calm - N/A   Clear
9:53 AM 78.1 °F 52.0 °F 40% 30.09 in 10.0 mi West 6.9 mph - N/A   Clear
10:53 AM 81.0 °F 50.0 °F 34% 30.08 in 10.0 mi West 8.1 mph - N/A   Clear
11:53 AM 81.0 °F 48.9 °F 33% 30.07 in 10.0 mi Variable 5.8 mph - N/A   Partly Cloudy
12:53 PM 82.0 °F 48.9 °F 31% 30.06 in 10.0 mi Variable 6.9 mph - N/A   Partly Cloudy
1:53 PM 82.9 °F 46.0 °F 27% 30.04 in 10.0 mi Calm Calm - N/A   Mostly Cloudy
2:53 PM 84.0 °F 46.9 °F 27% 30.01 in 10.0 mi SSW 11.5 mph - N/A   Mostly Cloudy
3:53 PM 84.9 °F 45.0 °F 25% 30.00 in 10.0 mi Calm Calm - N/A   Partly Cloudy
4:53 PM 84.9 °F 48.0 °F 28% 29.98 in 10.0 mi South 6.9 mph - N/A   Mostly Cloudy
5:41 PM 84.2 °F 46.4 °F 27% 29.99 in 10.0 mi SSW 9.2 mph - N/A Thunderstorm Partly Cloudy
5:53 PM 82.9 °F 46.9 °F 28% 29.97 in 10.0 mi Variable 6.9 mph - N/A Thunderstorm Partly Cloudy
6:53 PM 77.0 °F 51.1 °F 40% 29.98 in 10.0 mi East 11.5 mph - N/A Thunderstorm Scattered Clouds
7:08 PM 77.0 °F 51.8 °F 41% 30.00 in 10.0 mi ESE 10.4 mph - N/A   Partly Cloudy
7:43 PM 75.2 °F 51.8 °F 44% 30.00 in 10.0 mi ESE 12.7 mph - N/A Thunderstorm Partly Cloudy
7:53 PM 75.9 °F 50.0 °F 40% 29.98 in 10.0 mi ESE 10.4 mph - N/A   Mostly Cloudy
8:31 PM 73.4 °F 48.2 °F 41% 30.01 in 10.0 mi Variable 3.5 mph - N/A Thunderstorm Overcast
8:46 PM 69.8 °F 53.6 °F 56% 30.03 in 10.0 mi West 5.8 mph - 0.00 in Rain Light Rain
8:53 PM 72.0 °F 52.0 °F 49% 30.01 in 10.0 mi Calm Calm - 0.00 in Rain , Thunderstorm Light Rain
9:08 PM 71.6 °F 53.6 °F 53% 30.02 in 10.0 mi South 4.6 mph - 0.00 in   Mostly Cloudy
9:37 PM 69.8 °F 53.6 °F 56% 30.03 in 10.0 mi SE 13.8 mph 21.9 mph 0.00 in Thunderstorm Thunderstorm
9:53 PM 70.0 °F 53.1 °F 55% 30.00 in 10.0 mi SE 13.8 mph - 0.00 in Thunderstorm Thunderstorm
10:03 PM 69.8 °F 53.6 °F 56% 30.03 in 10.0 mi SSE 9.2 mph - N/A   Clear
10:53 PM 66.9 °F 53.1 °F 61% 30.01 in 10.0 mi SSE 5.8 mph - N/A   Clear
11:53 PM 64.9 °F 53.1 °F 65% 30.02 in 10.0 mi SE 10.4 mph - N/A   Clear